TimeEST,TemperatureF,Dew PointF,Humidity,Sea Level PressureIn,VisibilityMPH,Wind Direction,Wind SpeedMPH,Gust SpeedMPH,PrecipitationIn,Events,Conditions,WindDirDegrees,DateUTC
12:08 AM,37.4,32.0,81,29.92,10.0,South,4.6,-,N/A,,Mostly Cloudy,170,2013-02-05 05:08:00
12:51 AM,41.0,32.0,70,29.91,10.0,South,8.1,-,N/A,,Overcast,180,2013-02-05 05:51:00
1:12 AM,41.0,32.0,70,29.90,10.0,South,6.9,-,N/A,,Overcast,180,2013-02-05 06:12:00
1:33 AM,41.0,32.0,70,29.90,10.0,South,8.1,-,N/A,,Scattered Clouds,190,2013-02-05 06:33:00
1:55 AM,41.0,32.0,70,29.90,10.0,South,5.8,-,N/A,,Scattered Clouds,180,2013-02-05 06:55:00
2:16 AM,41.0,32.0,70,29.89,10.0,South,6.9,-,N/A,,Mostly Cloudy,190,2013-02-05 07:16:00
2:37 AM,41.0,32.0,70,29.89,10.0,SSW,3.5,-,N/A,,Overcast,200,2013-02-05 07:37:00
2:59 AM,37.4,32.0,81,29.89,10.0,SSW,3.5,-,N/A,,Scattered Clouds,200,2013-02-05 07:59:00
3:20 AM,39.2,32.0,75,29.88,10.0,South,4.6,-,N/A,,Mostly Cloudy,180,2013-02-05 08:20:00
4:03 AM,37.4,30.2,75,29.88,-9999.0,SSW,4.6,-,N/A,,Scattered Clouds,200,2013-02-05 09:03:00
4:24 AM,37.4,30.2,75,29.88,-9999.0,Calm,Calm,-,N/A,,Scattered Clouds,0,2013-02-05 09:24:00
4:45 AM,35.6,32.0,87,29.87,-9999.0,SSE,3.5,-,N/A,,Scattered Clouds,160,2013-02-05 09:45:00
6:11 AM,35.6,32.0,87,29.88,-9999.0,Calm,Calm,-,N/A,,Clear,0,2013-02-05 11:11:00
6:32 AM,35.6,32.0,87,29.88,-9999.0,Calm,Calm,-,N/A,,Unknown,0,2013-02-05 11:32:00
6:53 AM,35.6,32.0,87,29.89,-9999.0,Calm,Calm,-,N/A,,Unknown,0,2013-02-05 11:53:00
7:15 AM,33.8,32.0,93,29.89,-9999.0,SSE,3.5,-,N/A,,Unknown,150,2013-02-05 12:15:00
7:57 AM,35.6,32.0,87,29.90,10.0,Calm,Calm,-,N/A,,Clear,0,2013-02-05 12:57:00
8:18 AM,35.6,32.0,87,29.91,-9999.0,Calm,Calm,-,N/A,,Unknown,0,2013-02-05 13:18:00
8:40 AM,37.4,32.0,81,29.91,10.0,Calm,Calm,-,N/A,,Clear,0,2013-02-05 13:40:00
9:01 AM,37.4,33.8,87,29.90,10.0,Calm,Calm,-,N/A,,Clear,0,2013-02-05 14:01:00
9:22 AM,41.0,33.8,76,29.92,10.0,SSE,3.5,-,N/A,,Clear,160,2013-02-05 14:22:00
9:43 AM,41.0,32.0,70,29.92,10.0,South,3.5,-,N/A,,Clear,170,2013-02-05 14:43:00
10:05 AM,42.8,32.0,66,29.93,10.0,SW,4.6,-,N/A,,Clear,220,2013-02-05 15:05:00
10:26 AM,44.6,32.0,61,29.92,10.0,WNW,4.6,-,N/A,,Clear,290,2013-02-05 15:26:00
10:47 AM,44.6,32.0,61,29.92,10.0,West,6.9,-,N/A,,Clear,270,2013-02-05 15:47:00
11:09 AM,42.8,30.2,61,29.92,10.0,North,8.1,-,N/A,,Clear,360,2013-02-05 16:09:00
11:51 AM,44.6,32.0,61,29.91,10.0,WNW,8.1,-,N/A,,Clear,300,2013-02-05 16:51:00
12:12 PM,44.6,30.2,57,29.90,10.0,NNW,6.9,-,N/A,,Clear,340,2013-02-05 17:12:00
12:34 PM,42.8,30.2,61,29.89,10.0,NNW,4.6,-,N/A,,Clear,340,2013-02-05 17:34:00
12:55 PM,42.8,30.2,61,29.88,10.0,Calm,Calm,-,N/A,,Scattered Clouds,0,2013-02-05 17:55:00
1:16 PM,42.8,30.2,61,29.87,10.0,Calm,Calm,-,N/A,,Clear,0,2013-02-05 18:16:00
1:59 PM,44.6,30.2,57,29.86,10.0,Calm,Calm,-,N/A,,Clear,0,2013-02-05 18:59:00
2:20 PM,44.6,32.0,61,29.86,10.0,NNW,3.5,-,N/A,,Scattered Clouds,340,2013-02-05 19:20:00
2:41 PM,42.8,32.0,66,29.86,10.0,NNW,4.6,-,N/A,,Scattered Clouds,330,2013-02-05 19:41:00
3:03 PM,42.8,32.0,66,29.86,10.0,North,4.6,-,N/A,,Scattered Clouds,360,2013-02-05 20:03:00
3:24 PM,42.8,32.0,66,29.85,10.0,NNE,3.5,-,N/A,,Scattered Clouds,30,2013-02-05 20:24:00
3:45 PM,42.8,32.0,66,29.85,10.0,North,3.5,-,N/A,,Clear,350,2013-02-05 20:45:00
4:06 PM,42.8,32.0,66,29.86,10.0,Calm,Calm,-,N/A,,Clear,0,2013-02-05 21:06:00
4:28 PM,42.8,32.0,66,29.87,10.0,Calm,Calm,-,N/A,,Clear,0,2013-02-05 21:28:00
4:49 PM,41.0,32.0,70,29.87,10.0,Calm,Calm,-,N/A,,Clear,0,2013-02-05 21:49:00
5:10 PM,41.0,32.0,70,29.87,10.0,Calm,Calm,-,N/A,,Clear,0,2013-02-05 22:10:00
5:31 PM,41.0,32.0,70,29.86,10.0,Calm,Calm,-,N/A,,Clear,0,2013-02-05 22:31:00
5:53 PM,41.0,32.0,70,29.86,10.0,NNE,3.5,-,N/A,,Clear,30,2013-02-05 22:53:00
6:14 PM,37.4,32.0,81,29.87,10.0,Calm,Calm,-,N/A,,Clear,0,2013-02-05 23:14:00
6:35 PM,41.0,33.8,76,29.88,10.0,Calm,Calm,-,N/A,,Clear,0,2013-02-05 23:35:00
6:57 PM,41.0,32.0,70,29.89,10.0,Calm,Calm,-,N/A,,Clear,0,2013-02-05 23:57:00
7:18 PM,37.4,32.0,81,29.89,10.0,Calm,Calm,-,N/A,,Clear,0,2013-02-06 00:18:00
7:39 PM,35.6,32.0,87,29.89,10.0,Calm,Calm,-,N/A,,Scattered Clouds,0,2013-02-06 00:39:00
8:00 PM,35.6,32.0,87,29.89,10.0,ENE,3.5,-,N/A,,Clear,70,2013-02-06 01:00:00
8:22 PM,37.4,32.0,81,29.89,10.0,East,3.5,-,N/A,,Clear,80,2013-02-06 01:22:00
8:43 PM,35.6,32.0,87,29.89,10.0,Calm,Calm,-,N/A,,Clear,0,2013-02-06 01:43:00
9:04 PM,35.6,32.0,87,29.89,10.0,Calm,Calm,-,N/A,,Clear,0,2013-02-06 02:04:00
9:26 PM,35.6,32.0,87,29.89,10.0,Calm,Calm,-,N/A,,Clear,0,2013-02-06 02:26:00
9:47 PM,33.8,32.0,93,29.90,10.0,Calm,Calm,-,N/A,,Clear,0,2013-02-06 02:47:00
10:08 PM,32.0,30.2,93,29.90,10.0,Calm,Calm,-,N/A,,Clear,0,2013-02-06 03:08:00
10:30 PM,32.0,32.0,100,29.91,10.0,Calm,Calm,-,N/A,,Clear,0,2013-02-06 03:30:00
10:51 PM,32.0,32.0,100,29.91,10.0,Calm,Calm,-,N/A,,Clear,0,2013-02-06 03:51:00
11:12 PM,32.0,32.0,100,29.92,10.0,North,3.5,-,N/A,,Clear,350,2013-02-06 04:12:00
11:34 PM,32.0,30.2,93,29.92,7.0,Calm,Calm,-,N/A,,Scattered Clouds,0,2013-02-06 04:34:00
11:55 PM,32.0,30.2,93,29.92,7.0,Calm,Calm,-,N/A,,Scattered Clouds,0,2013-02-06 04:55:00